TimeEDT,TemperatureF,Dew PointF,Humidity,Sea Level PressureIn,VisibilityMPH,Wind Direction,Wind SpeedMPH,Gust SpeedMPH,PrecipitationIn,Events,Conditions,WindDirDegrees,DateUTC
12:15 AM,64.4,60.8,88,30.02,10.0,Calm,Calm,-,N/A,,Clear,0,2013-07-13 04:15:00
12:35 AM,64.4,60.8,88,30.01,10.0,WSW,3.5,-,N/A,,Clear,240,2013-07-13 04:35:00
12:55 AM,64.4,60.8,88,30.01,10.0,Calm,Calm,-,N/A,,Clear,0,2013-07-13 04:55:00
1:35 AM,62.6,60.8,94,30.01,10.0,Calm,Calm,-,N/A,,Clear,0,2013-07-13 05:35:00
1:55 AM,62.6,60.8,94,30.01,10.0,Calm,Calm,-,N/A,,Clear,0,2013-07-13 05:55:00
2:15 AM,62.6,60.8,94,30.01,10.0,Calm,Calm,-,N/A,,Clear,0,2013-07-13 06:15:00
2:35 AM,62.6,60.8,94,30.00,10.0,Calm,Calm,-,N/A,,Clear,0,2013-07-13 06:35:00
2:55 AM,60.8,60.8,100,30.00,10.0,Calm,Calm,-,N/A,,Clear,0,2013-07-13 06:55:00
3:15 AM,60.8,60.8,100,30.00,10.0,Calm,Calm,-,N/A,,Clear,0,2013-07-13 07:15:00
3:35 AM,60.8,59.0,94,30.00,10.0,Calm,Calm,-,N/A,,Clear,0,2013-07-13 07:35:00
3:55 AM,60.8,59.0,94,30.00,10.0,Calm,Calm,-,N/A,,Clear,0,2013-07-13 07:55:00
4:15 AM,60.8,59.0,94,30.00,10.0,Calm,Calm,-,N/A,,Clear,0,2013-07-13 08:15:00
4:35 AM,60.8,59.0,94,29.99,10.0,Calm,Calm,-,N/A,,Clear,0,2013-07-13 08:35:00
4:55 AM,60.8,59.0,94,29.99,10.0,Calm,Calm,-,N/A,,Clear,0,2013-07-13 08:55:00
5:15 AM,59.0,57.2,94,29.99,10.0,Calm,Calm,-,N/A,,Clear,0,2013-07-13 09:15:00
5:35 AM,59.0,57.2,94,30.00,10.0,Calm,Calm,-,N/A,,Clear,0,2013-07-13 09:35:00
5:55 AM,57.2,57.2,100,29.99,9.0,Calm,Calm,-,N/A,,Clear,0,2013-07-13 09:55:00
6:15 AM,57.2,57.2,100,30.00,10.0,Calm,Calm,-,N/A,,Clear,0,2013-07-13 10:15:00
6:35 AM,57.2,57.2,100,30.02,9.0,Calm,Calm,-,N/A,,Clear,0,2013-07-13 10:35:00
6:55 AM,59.0,57.2,94,30.02,10.0,Calm,Calm,-,N/A,,Clear,0,2013-07-13 10:55:00
7:15 AM,60.8,59.0,94,30.02,10.0,Calm,Calm,-,N/A,,Clear,0,2013-07-13 11:15:00
7:35 AM,60.8,60.8,100,30.02,10.0,Calm,Calm,-,N/A,,Clear,0,2013-07-13 11:35:00
7:55 AM,62.6,60.8,94,30.03,10.0,Calm,Calm,-,N/A,,Clear,0,2013-07-13 11:55:00
8:15 AM,62.6,60.8,94,30.03,10.0,Calm,Calm,-,N/A,,Clear,0,2013-07-13 12:15:00
8:35 AM,64.4,62.6,94,30.03,10.0,Calm,Calm,-,N/A,,Clear,0,2013-07-13 12:35:00
8:55 AM,66.2,62.6,88,30.04,10.0,Calm,Calm,-,N/A,,Clear,0,2013-07-13 12:55:00
9:15 AM,68.0,62.6,83,30.04,10.0,Calm,Calm,-,N/A,,Clear,0,2013-07-13 13:15:00
9:35 AM,69.8,64.4,83,30.04,10.0,Calm,Calm,-,N/A,,Clear,0,2013-07-13 13:35:00
9:55 AM,73.4,64.4,73,30.04,10.0,Calm,Calm,-,N/A,,Clear,0,2013-07-13 13:55:00
10:15 AM,73.4,66.2,78,30.04,10.0,SSE,4.6,-,N/A,,Clear,150,2013-07-13 14:15:00
10:35 AM,73.4,66.2,78,30.04,10.0,SE,5.8,-,N/A,,Clear,130,2013-07-13 14:35:00
10:55 AM,75.2,66.2,73,30.04,10.0,SSE,4.6,-,N/A,,Clear,150,2013-07-13 14:55:00
11:15 AM,77.0,66.2,69,30.04,10.0,South,5.8,-,N/A,,Mostly Cloudy,170,2013-07-13 15:15:00
11:35 AM,78.8,68.0,69,30.04,10.0,South,5.8,-,N/A,,Mostly Cloudy,190,2013-07-13 15:35:00
11:55 AM,80.6,66.2,61,30.04,10.0,SE,6.9,-,N/A,,Scattered Clouds,140,2013-07-13 15:55:00
12:15 PM,80.6,66.2,61,30.04,10.0,South,8.1,-,N/A,,Mostly Cloudy,170,2013-07-13 16:15:00
12:35 PM,80.6,66.2,61,30.05,10.0,South,6.9,-,N/A,,Mostly Cloudy,170,2013-07-13 16:35:00
12:55 PM,80.6,66.2,61,30.05,10.0,SSE,4.6,-,N/A,,Mostly Cloudy,150,2013-07-13 16:55:00
1:15 PM,80.6,68.0,65,30.05,10.0,SE,6.9,-,N/A,,Mostly Cloudy,140,2013-07-13 17:15:00
1:35 PM,80.6,68.0,65,30.05,10.0,SSE,9.2,-,N/A,,Mostly Cloudy,160,2013-07-13 17:35:00
1:55 PM,82.4,68.0,62,30.04,10.0,South,8.1,-,N/A,,Partly Cloudy,190,2013-07-13 17:55:00
2:15 PM,84.2,66.2,55,30.03,10.0,South,6.9,-,N/A,,Clear,170,2013-07-13 18:15:00
2:35 PM,84.2,69.8,62,30.03,10.0,SSE,9.2,-,N/A,,Partly Cloudy,160,2013-07-13 18:35:00
2:55 PM,84.2,68.0,58,30.02,10.0,SE,10.4,-,N/A,,Scattered Clouds,140,2013-07-13 18:55:00
3:15 PM,82.4,69.8,66,30.01,10.0,ESE,12.7,-,N/A,,Mostly Cloudy,120,2013-07-13 19:15:00
3:35 PM,82.4,68.0,62,30.01,10.0,SE,12.7,-,N/A,,Scattered Clouds,130,2013-07-13 19:35:00
3:55 PM,82.4,66.2,58,30.01,10.0,SSE,10.4,-,N/A,,Scattered Clouds,150,2013-07-13 19:55:00
4:15 PM,82.4,66.2,58,30.01,10.0,SSE,8.1,-,N/A,,Partly Cloudy,160,2013-07-13 20:15:00
4:35 PM,82.4,68.0,62,30.01,10.0,SSE,9.2,-,N/A,,Clear,160,2013-07-13 20:35:00
4:55 PM,84.2,69.8,62,30.00,10.0,South,6.9,-,N/A,,Clear,190,2013-07-13 20:55:00
5:15 PM,84.2,68.0,58,30.00,10.0,SSE,11.5,-,N/A,,Partly Cloudy,150,2013-07-13 21:15:00
5:35 PM,82.4,69.8,66,30.01,10.0,ESE,10.4,-,N/A,,Partly Cloudy,120,2013-07-13 21:35:00
5:55 PM,82.4,69.8,66,30.00,10.0,SE,8.1,-,N/A,,Clear,130,2013-07-13 21:55:00
6:15 PM,82.4,68.0,62,30.01,10.0,SE,9.2,-,N/A,,Scattered Clouds,140,2013-07-13 22:15:00
6:35 PM,82.4,69.8,66,30.01,10.0,SE,12.7,-,N/A,,Partly Cloudy,140,2013-07-13 22:35:00
6:55 PM,82.4,69.8,66,30.01,10.0,SSE,10.4,-,N/A,,Clear,160,2013-07-13 22:55:00
7:15 PM,82.4,69.8,66,30.01,10.0,South,8.1,-,N/A,,Clear,170,2013-07-13 23:15:00
7:35 PM,80.6,68.0,65,30.01,10.0,SSE,8.1,-,N/A,,Clear,150,2013-07-13 23:35:00
7:55 PM,80.6,68.0,65,30.02,10.0,SSE,6.9,-,N/A,,Clear,150,2013-07-13 23:55:00
8:15 PM,78.8,68.0,69,30.03,10.0,SE,9.2,-,N/A,,Clear,140,2013-07-14 00:15:00
8:35 PM,78.8,68.0,69,30.04,10.0,SE,6.9,-,N/A,,Clear,130,2013-07-14 00:35:00
8:55 PM,77.0,68.0,74,30.04,10.0,SE,5.8,-,N/A,,Clear,140,2013-07-14 00:55:00
9:15 PM,75.2,68.0,78,30.04,10.0,ESE,3.5,-,N/A,,Clear,120,2013-07-14 01:15:00
9:35 PM,75.2,68.0,78,30.05,10.0,ESE,3.5,-,N/A,,Clear,110,2013-07-14 01:35:00
9:55 PM,75.2,69.8,83,30.06,10.0,ESE,4.6,-,N/A,,Clear,120,2013-07-14 01:55:00
10:15 PM,75.2,68.0,78,30.07,10.0,ESE,5.8,-,N/A,,Clear,120,2013-07-14 02:15:00
10:35 PM,73.4,68.0,83,30.08,10.0,Calm,Calm,-,N/A,,Clear,0,2013-07-14 02:35:00
10:55 PM,73.4,68.0,83,30.08,10.0,Calm,Calm,-,N/A,,Clear,0,2013-07-14 02:55:00
11:15 PM,73.4,68.0,83,30.08,10.0,Calm,Calm,-,N/A,,Clear,0,2013-07-14 03:15:00
11:35 PM,73.4,66.2,78,30.08,10.0,ESE,3.5,-,N/A,,Clear,120,2013-07-14 03:35:00
11:55 PM,73.4,66.2,78,30.09,10.0,East,3.5,-,N/A,,Clear,90,2013-07-14 03:55:00